Location: ??????????
(54.7560°N, 39.1389°E)
Time: 03:59:38
(UTC+00:00)

Iridium 4 Rocket - Pass Details

Date: 19 May 2025
Orbit: 582 x 886 km, 86.9° (Epoch: 19 June)

Event Time Altitude Azimuth Distance (km) Brightness Sun altitude
Rises 18:17:44 0° 353° (N) 3,114 7.7 -5.8°
Reaches altitude 10° 18:19:57 10° 351° (N) 2,236 6.9 -6.0°
Maximum altitude 18:24:54 65° 271° (W) 852 4.0 -6.5°
Drops below altitude 10° 18:30:16 10° 190° (S) 2,413 5.7 -7.0°
Sets 18:32:45 0° 188° (S) 3,381 6.4 -7.2°
